EZY365G EGCC-EGAC

Flight info

Callsign EZY365G
Flight time 0h 37m
Altitude 24000
Route EKLAD Y53 WAL M146 ERDUV Z198 MASOP M148 MAGEE
Aircraft A320/M-SDE2E3FGHIJ1RWXYZ/LB1

Departure

Time 2026-05-08 12:31
Airport Manchester Airport (EGCC)

Arrival

Time 2026-05-08 13:08
Airport George Best Belfast City Airport (EGAC)
Time Latitude Longitude Altitude Speed Heading
2026-05-08 11:56 53.36390 -2.27635 255 ft 0 kts 14°
2026-05-08 12:21 53.36380 -2.27640 255 ft 4 kts 14°
2026-05-08 12:21 53.36354 -2.27651 255 ft 4 kts 14°
2026-05-08 12:21 53.36335 -2.27659 255 ft 4 kts 336°
2026-05-08 12:21 53.36323 -2.27636 255 ft 1 kts 284°
2026-05-08 12:22 53.36329 -2.27671 255 ft 4 kts 284°
2026-05-08 12:22 53.36336 -2.27715 255 ft 4 kts 284°
2026-05-08 12:22 53.36341 -2.27747 255 ft 0 kts 284°
2026-05-08 12:25 53.36341 -2.27748 255 ft 1 kts 285°
2026-05-08 12:25 53.36346 -2.27775 255 ft 4 kts 288°
2026-05-08 12:25 53.36370 -2.27828 255 ft 8 kts 316°
2026-05-08 12:25 53.36393 -2.27914 255 ft 9 kts 255°
2026-05-08 12:26 53.36348 -2.28007 255 ft 11 kts 224°
2026-05-08 12:26 53.36279 -2.28068 255 ft 12 kts 198°
2026-05-08 12:26 53.36208 -2.28139 255 ft 12 kts 213°
2026-05-08 12:26 53.36135 -2.28117 255 ft 12 kts 135°
2026-05-08 12:27 53.36078 -2.28027 255 ft 11 kts 139°
2026-05-08 12:27 53.36025 -2.27950 255 ft 10 kts 139°
2026-05-08 12:27 53.35977 -2.27883 255 ft 8 kts 141°
2026-05-08 12:27 53.35929 -2.27846 255 ft 7 kts 171°
2026-05-08 12:28 53.35881 -2.27846 255 ft 9 kts 173°
2026-05-08 12:28 53.35820 -2.27746 252 ft 14 kts 131°
2026-05-08 12:28 53.35737 -2.27642 249 ft 17 kts 159°
2026-05-08 12:28 53.35631 -2.27537 246 ft 19 kts 141°
2026-05-08 12:29 53.35518 -2.27387 248 ft 21 kts 141°
2026-05-08 12:29 53.35405 -2.27233 246 ft 17 kts 143°
2026-05-08 12:29 53.35299 -2.27201 241 ft 19 kts 189°
2026-05-08 12:29 53.35156 -2.27248 230 ft 17 kts 192°
2026-05-08 12:30 53.35046 -2.27286 226 ft 13 kts 192°
2026-05-08 12:30 53.34975 -2.27392 225 ft 16 kts 231°
2026-05-08 12:30 53.34866 -2.27620 223 ft 50 kts 230°
2026-05-08 12:30 53.34486 -2.28399 225 ft 120 kts 231°
2026-05-08 12:31 53.33851 -2.29709 387 ft 159 kts 231°
2026-05-08 12:31 53.33172 -2.31166 1229 ft 159 kts 230°
2026-05-08 12:31 53.32462 -2.32660 1855 ft 173 kts 226°
2026-05-08 12:31 53.31742 -2.34439 2309 ft 197 kts 241°
2026-05-08 12:32 53.31284 -2.36765 2760 ft 226 kts 260°
2026-05-08 12:32 53.31317 -2.39548 3314 ft 255 kts 280°
2026-05-08 12:32 53.31744 -2.42490 4238 ft 264 kts 280°
2026-05-08 12:32 53.31936 -2.45565 4903 ft 268 kts 264°
2026-05-08 12:33 53.31623 -2.48621 5987 ft 266 kts 251°
2026-05-08 12:33 53.31063 -2.51583 7017 ft 269 kts 250°
2026-05-08 12:33 53.30505 -2.54587 8036 ft 272 kts 250°
2026-05-08 12:33 53.29949 -2.57628 9085 ft 275 kts 251°
2026-05-08 12:34 53.29388 -2.60712 10100 ft 279 kts 251°
2026-05-08 12:34 53.28807 -2.63903 10678 ft 298 kts 251°
2026-05-08 12:34 53.28180 -2.67327 11213 ft 314 kts 251°
2026-05-08 12:34 53.27531 -2.70851 12041 ft 320 kts 251°
2026-05-08 12:35 53.26869 -2.74420 12916 ft 325 kts 251°
2026-05-08 12:35 53.26383 -2.78140 13757 ft 332 kts 263°
2026-05-08 12:35 53.26465 -2.82029 14500 ft 340 kts 277°
2026-05-08 12:35 53.27154 -2.85829 15268 ft 346 kts 292°
2026-05-08 12:36 53.28419 -2.89283 16049 ft 352 kts 304°
2026-05-08 12:36 53.29889 -2.92565 16817 ft 354 kts 304°
2026-05-08 12:36 53.31373 -2.95880 17599 ft 357 kts 304°
2026-05-08 12:36 53.32869 -2.99222 18367 ft 360 kts 304°
2026-05-08 12:37 53.34375 -3.02592 19026 ft 363 kts 303°
2026-05-08 12:37 53.35889 -3.05993 19675 ft 366 kts 303°
2026-05-08 12:37 53.37416 -3.09424 20338 ft 369 kts 303°
2026-05-08 12:37 53.38965 -3.12876 20954 ft 373 kts 306°
2026-05-08 12:38 53.40745 -3.16079 21574 ft 378 kts 311°
2026-05-08 12:38 53.41970 -3.18160 21987 ft 380 kts 311°
2026-05-08 12:38 53.43831 -3.21332 22631 ft 382 kts 311°
2026-05-08 12:38 53.45699 -3.24526 23239 ft 385 kts 311°
2026-05-08 12:39 53.47587 -3.27749 23806 ft 388 kts 311°
2026-05-08 12:39 53.49487 -3.30990 24041 ft 390 kts 311°
2026-05-08 12:39 53.51372 -3.34200 24099 ft 379 kts 311°
2026-05-08 12:39 53.53178 -3.37273 24108 ft 362 kts 310°
2026-05-08 12:40 53.54926 -3.40263 24109 ft 357 kts 310°
2026-05-08 12:40 53.56656 -3.43245 24109 ft 355 kts 310°
2026-05-08 12:40 53.58285 -3.46342 24109 ft 351 kts 302°
2026-05-08 12:40 53.59691 -3.49701 24108 ft 351 kts 301°
2026-05-08 12:41 53.61098 -3.53060 24107 ft 351 kts 301°
2026-05-08 12:41 53.62507 -3.56411 24107 ft 351 kts 301°
2026-05-08 12:41 53.63923 -3.59768 24106 ft 351 kts 301°
2026-05-08 12:41 53.65337 -3.63121 24106 ft 351 kts 301°
2026-05-08 12:42 53.66752 -3.66480 24111 ft 351 kts 301°
2026-05-08 12:42 53.68162 -3.69841 24116 ft 351 kts 301°
2026-05-08 12:42 53.69550 -3.73166 24129 ft 351 kts 300°
2026-05-08 12:42 53.70954 -3.76537 24128 ft 351 kts 300°
2026-05-08 12:43 53.72354 -3.79909 24123 ft 351 kts 300°
2026-05-08 12:43 53.73756 -3.83283 24122 ft 351 kts 300°
2026-05-08 12:43 53.75158 -3.86656 24121 ft 351 kts 300°
2026-05-08 12:43 53.76576 -3.90073 24120 ft 351 kts 300°
2026-05-08 12:44 53.77954 -3.93408 24120 ft 351 kts 300°
2026-05-08 12:44 53.79349 -3.96787 24119 ft 351 kts 300°
2026-05-08 12:44 53.80746 -4.00169 24121 ft 351 kts 300°
2026-05-08 12:44 53.82140 -4.03547 24121 ft 350 kts 300°
2026-05-08 12:45 53.83534 -4.06932 24118 ft 350 kts 300°
2026-05-08 12:45 53.84928 -4.10321 24117 ft 350 kts 300°
2026-05-08 12:45 53.86378 -4.13643 24118 ft 353 kts 307°
2026-05-08 12:45 53.88191 -4.16493 24117 ft 359 kts 318°
2026-05-08 12:46 53.90148 -4.19104 23922 ft 355 kts 314°
2026-05-08 12:46 53.91947 -4.21929 23698 ft 351 kts 310°
2026-05-08 12:46 53.93656 -4.24871 23451 ft 349 kts 308°
2026-05-08 12:46 53.95329 -4.27837 23170 ft 347 kts 308°
2026-05-08 12:47 53.97000 -4.30784 22891 ft 346 kts 309°
2026-05-08 12:47 53.98683 -4.33698 22617 ft 345 kts 309°
2026-05-08 12:47 54.00378 -4.36580 22344 ft 344 kts 310°
2026-05-08 12:47 54.02080 -4.39434 22074 ft 343 kts 310°
2026-05-08 12:48 54.03782 -4.42269 21807 ft 342 kts 310°
2026-05-08 12:48 54.05482 -4.45096 21541 ft 341 kts 310°
2026-05-08 12:48 54.07174 -4.47913 21280 ft 340 kts 310°
2026-05-08 12:48 54.08859 -4.50721 21020 ft 339 kts 310°
2026-05-08 12:49 54.10537 -4.53522 20762 ft 337 kts 310°
2026-05-08 12:49 54.12200 -4.56308 20441 ft 332 kts 310°
2026-05-08 12:49 54.13842 -4.59065 20029 ft 331 kts 310°
2026-05-08 12:49 54.15477 -4.61820 19621 ft 330 kts 310°
2026-05-08 12:50 54.17103 -4.64568 19204 ft 329 kts 310°
2026-05-08 12:50 54.18723 -4.67311 18808 ft 328 kts 310°
2026-05-08 12:50 54.20343 -4.70051 18394 ft 328 kts 311°
2026-05-08 12:50 54.21963 -4.72789 17963 ft 327 kts 311°
2026-05-08 12:51 54.23576 -4.75515 17540 ft 325 kts 311°
2026-05-08 12:51 54.26772 -4.80917 16751 ft 322 kts 311°
2026-05-08 12:51 54.28356 -4.83608 16355 ft 321 kts 311°
2026-05-08 12:52 54.29933 -4.86294 15967 ft 319 kts 311°
2026-05-08 12:52 54.33067 -4.91656 15224 ft 317 kts 311°
2026-05-08 12:52 54.34624 -4.94317 14843 ft 316 kts 311°
2026-05-08 12:53 54.36185 -4.96981 14463 ft 316 kts 311°
2026-05-08 12:53 54.37741 -4.99634 14084 ft 315 kts 312°
2026-05-08 12:53 54.39293 -5.02281 13680 ft 314 kts 312°
2026-05-08 12:53 54.40838 -5.04924 13286 ft 313 kts 311°
2026-05-08 12:54 54.42371 -5.07553 12898 ft 310 kts 311°
2026-05-08 12:54 54.43894 -5.10170 12508 ft 309 kts 311°
2026-05-08 12:54 54.45404 -5.12769 12124 ft 307 kts 311°
2026-05-08 12:54 54.46904 -5.15355 11740 ft 305 kts 312°
2026-05-08 12:55 54.48400 -5.17934 11352 ft 303 kts 312°
2026-05-08 12:55 54.49888 -5.20500 10952 ft 302 kts 312°
2026-05-08 12:55 54.51426 -5.22960 10551 ft 302 kts 316°
2026-05-08 12:55 54.52745 -5.25690 10161 ft 295 kts 294°
2026-05-08 12:56 54.53325 -5.29018 9738 ft 289 kts 272°
2026-05-08 12:56 54.53159 -5.32407 9312 ft 284 kts 255°
2026-05-08 12:56 54.52724 -5.35720 8878 ft 282 kts 255°
2026-05-08 12:56 54.52288 -5.39001 8454 ft 280 kts 255°
2026-05-08 12:57 54.51705 -5.42180 8049 ft 278 kts 249°
2026-05-08 12:57 54.51052 -5.45296 7635 ft 275 kts 249°
2026-05-08 12:57 54.50396 -5.48380 7226 ft 273 kts 249°
2026-05-08 12:57 54.49740 -5.51437 6829 ft 271 kts 249°
2026-05-08 12:58 54.49088 -5.54472 6420 ft 270 kts 249°
2026-05-08 12:58 54.48435 -5.57488 5997 ft 268 kts 249°
2026-05-08 12:58 54.47780 -5.60480 5574 ft 267 kts 249°
2026-05-08 12:58 54.47127 -5.63433 5376 ft 263 kts 249°
2026-05-08 12:59 54.46471 -5.66376 5243 ft 263 kts 249°
2026-05-08 12:59 54.45814 -5.69314 5114 ft 263 kts 249°
2026-05-08 12:59 54.45155 -5.72244 4991 ft 263 kts 249°
2026-05-08 12:59 54.44494 -5.75170 4854 ft 263 kts 249°
2026-05-08 13:00 54.43831 -5.78095 4718 ft 262 kts 249°
2026-05-08 13:00 54.43167 -5.81014 4586 ft 263 kts 249°
2026-05-08 13:00 54.42500 -5.83930 4454 ft 262 kts 249°
2026-05-08 13:00 54.41831 -5.86840 4324 ft 262 kts 249°
2026-05-08 13:01 54.41168 -5.89710 4197 ft 253 kts 249°
2026-05-08 13:01 54.40531 -5.92445 4062 ft 243 kts 249°
2026-05-08 13:01 54.39907 -5.95124 3931 ft 241 kts 249°
2026-05-08 13:01 54.39282 -5.97792 3803 ft 241 kts 249°
2026-05-08 13:02 54.38747 -6.00500 3670 ft 239 kts 262°
2026-05-08 13:02 54.38831 -6.03252 3545 ft 228 kts 288°
2026-05-08 13:02 54.39538 -6.05658 3413 ft 226 kts 309°
2026-05-08 13:02 54.40699 -6.07412 3282 ft 224 kts 330°
2026-05-08 13:03 54.42167 -6.08306 3153 ft 223 kts 353°
2026-05-08 13:03 54.43702 -6.08202 3023 ft 222 kts 14°
2026-05-08 13:03 54.45081 -6.07155 2887 ft 214 kts 33°
2026-05-08 13:03 54.46282 -6.05729 2757 ft 206 kts 34°
2026-05-08 13:04 54.47441 -6.04355 2629 ft 200 kts 34°
2026-05-08 13:04 54.48575 -6.03012 2501 ft 196 kts 34°
2026-05-08 13:04 54.49675 -6.01707 2374 ft 193 kts 34°
2026-05-08 13:04 54.50777 -6.00399 2235 ft 191 kts 34°
2026-05-08 13:05 54.51841 -5.99134 2146 ft 178 kts 34°
2026-05-08 13:05 54.52816 -5.97976 2031 ft 165 kts 33°
2026-05-08 13:05 54.53748 -5.96868 1834 ft 161 kts 34°
2026-05-08 13:05 54.54643 -5.95802 1630 ft 151 kts 33°
2026-05-08 13:06 54.55484 -5.94801 1435 ft 143 kts 33°
2026-05-08 13:06 54.56286 -5.93846 1235 ft 138 kts 33°
2026-05-08 13:06 54.57050 -5.92935 1054 ft 131 kts 34°
2026-05-08 13:06 54.57791 -5.92052 870 ft 129 kts 35°
2026-05-08 13:07 54.58524 -5.91178 689 ft 127 kts 35°
2026-05-08 13:07 54.59245 -5.90318 523 ft 126 kts 36°
2026-05-08 13:07 54.59963 -5.89460 357 ft 125 kts 36°
2026-05-08 13:07 54.60670 -5.88610 175 ft 123 kts 36°
2026-05-08 13:08 54.61370 -5.87782 28 ft 118 kts 36°
2026-05-08 13:08 54.61959 -5.87071 16 ft 76 kts 35°
2026-05-08 13:08 54.62244 -5.86732 21 ft 31 kts 34°
2026-05-08 13:08 54.62394 -5.86558 22 ft 13 kts 28°
2026-05-08 13:09 54.62481 -5.86505 20 ft 13 kts 69°
2026-05-08 13:09 54.62449 -5.86487 20 ft 4 kts 214°
2026-05-08 13:09 54.62374 -5.86577 22 ft 25 kts 216°
2026-05-08 13:09 54.62216 -5.86767 20 ft 29 kts 214°
2026-05-08 13:10 54.62039 -5.86977 17 ft 32 kts 214°
2026-05-08 13:10 54.61884 -5.87164 19 ft 15 kts 213°
2026-05-08 13:10 54.61808 -5.87112 18 ft 14 kts 124°
2026-05-08 13:10 54.61768 -5.87014 23 ft 8 kts 131°
2026-05-08 13:11 54.61726 -5.86994 21 ft 6 kts 199°
2026-05-08 13:11 54.61693 -5.87031 22 ft 5 kts 214°
2026-05-08 13:11 54.61662 -5.87067 21 ft 5 kts 215°
2026-05-08 13:11 54.61634 -5.87101 21 ft 5 kts 215°
2026-05-08 13:12 54.61606 -5.87135 21 ft 7 kts 215°
2026-05-08 13:12 54.61567 -5.87182 21 ft 7 kts 215°
2026-05-08 13:12 54.61529 -5.87228 22 ft 6 kts 215°
2026-05-08 13:12 54.61494 -5.87270 21 ft 6 kts 214°
2026-05-08 13:13 54.61454 -5.87277 21 ft 4 kts 131°
2026-05-08 13:13 54.61445 -5.87250 23 ft 3 kts 124°
2026-05-08 13:13 54.61435 -5.87224 21 ft 2 kts 124°
2026-05-08 13:13 54.61433 -5.87219 21 ft 0 kts 124°